{"data":{"norad_id":62730,"intl_designator":"2025-013B","name":"2025-013B","alt_names":[],"object_type":"PAYLOAD","status":"ACTIVE","operator":null,"country":"PRC","launch_date":"2025-01-20","launch_site_code":"JSC","launch_vehicle":null,"mission":null,"orbit_class":"UNKNOWN","rcs_meters":null,"size_class":null,"mass_kg":null,"dimensions":null,"purposes":[],"wikipedia_slug":null,"has_3d_model":false,"image_url":null,"decayed_at":null,"tle_current":{"epoch":"2026-09-22T22:00:28.902816Z","epoch_age_seconds":110792,"freshness":"FRESH","line1":"1 62730U 25013B   26265.91700119  .00001953  00000+0  11792-3 0  9998","line2":"2 62730  97.6645  75.5012 0014077  39.6235 320.6021 15.11845504 92092","mean_motion":15.11845504,"eccentricity":0.0014077,"inclination_deg":97.6645,"raan_deg":75.5012,"arg_perigee_deg":39.6235,"mean_anomaly_deg":320.6021,"bstar":0.00011792,"rev_number":9209,"period_min":95.247827651045,"perigee_km":520.84659827352,"apogee_km":540.29737755809,"semimajor_km":6908.7089879158,"source":"CELESTRAK","updated_at":"2026-09-23T09:00:21.591705Z"}}}